Lehigh Valley, PA

10:31 AM EST on January 17, 2017 (GMT -0500)
Lehigh Valley International

Weather History for KABE - March, 2013

Change the Weather History Date:

Sunday, March 10, 2013

  Actual Average Record
Temperature  
Mean Temperature 42 °F 37 °F  
Max Temperature 57 °F 47 °F 80 °F (2016)
Min Temperature 26 °F 27 °F 4 °F (1984)
Degree Days  
Heating Degree Days 23 28  
Month to date heating degree days 272 295  
Since 1 July heating degree days 4227 4604  
Cooling Degree Days 0 0  
Month to date cooling degree days 0 0  
Year to date cooling degree days 0 0  
Moisture  
Dew Point 26 °F    
Average Humidity 51    
Maximum Humidity 75    
Minimum Humidity 27    
Precipitation  
Precipitation 0.00 in 0.10 in 2.24 in (2011)
Month to date precipitation 0.01 1.00  
Year to date precipitation 6.07 6.73  
Snow  
Snow 0.00 in 0.20 in 7.00 in (1928)
Month to date snowfall T 2.3  
Since 1 July snowfall 16.9 29.3  
Snow Depth 0.00 in    
Sea Level Pressure  
Sea Level Pressure 30.31 in    
Wind  
Wind Speed 5 mph (SE)    
Max Wind Speed 13 mph    
Max Gust Speed 25 mph    
Visibility 10 miles    
Events      
T = Trace of Precipitation, MM = Missing Value Source: NWS Daily Summary

Daily Weather History Graph

Daily Weather History Graph

Search for Another Location

Airport or City:

Trip Planner

Search our weather history database for the weather conditions in past years. The results will help you decide how hot, cold, wet, or windy it might be!

Date:

Astronomy

Mar. 10, 2013 Rise Set
Actual Time 7:21 AM EDT 7:03 PM EDT
Civil Twilight 6:53 AM EDT 7:30 PM EDT
Nautical Twilight 6:22 AM EDT 8:02 PM EDT
Astronomical Twilight 5:50 AM EDT 8:34 PM EDT
Moon 6:19 AM EDT (3/10) 6:08 PM EDT (3/10)
Length of Visible Light 12h 36m
Length of Day
11h 42m
Waning Crescent, 2% of the Moon is Illuminated
Mar 10
Waning Crescent
Mar 11
New
Mar 19
First Quarter
Mar 27
Full
Apr 3
Last Quarter

Hourly Weather History & Observations

Time (EDT) Temp. Windchill Dew Point Humidity Pressure Visibility Wind Dir Wind Speed Gust Speed Precip Events Conditions
12:51 AM 32.0 °F - 21.0 °F 64% 30.32 in 10.0 mi Calm Calm - N/A   Clear
1:51 AM 30.0 °F - 21.9 °F 72% 30.32 in 10.0 mi Calm Calm - N/A   Clear
3:51 AM 28.9 °F - 21.9 °F 75% 30.32 in 10.0 mi Calm Calm - N/A   Clear
4:51 AM 28.9 °F - 21.9 °F 75% 30.32 in 10.0 mi Calm Calm - N/A   Clear
5:51 AM 28.9 °F 25.2 °F 21.9 °F 75% 30.34 in 10.0 mi NNE 3.5 mph - N/A   Clear
6:51 AM 30.0 °F 25.2 °F 23.0 °F 75% 30.34 in 10.0 mi East 4.6 mph - N/A   Clear
7:51 AM 28.9 °F 25.2 °F 21.9 °F 75% 30.35 in 10.0 mi NE 3.5 mph - N/A   Clear
8:51 AM 37.0 °F 34.5 °F 27.0 °F 67% 30.36 in 10.0 mi NE 3.5 mph - N/A   Clear
9:51 AM 41.0 °F 38.0 °F 28.9 °F 62% 30.36 in 10.0 mi ESE 4.6 mph - N/A   Clear
10:51 AM 45.0 °F 42.6 °F 28.9 °F 53% 30.36 in 10.0 mi East 4.6 mph - N/A   Clear
11:51 AM 50.0 °F - 28.9 °F 44% 30.35 in 10.0 mi East 8.1 mph - 0.00 in   Clear
12:51 PM 51.1 °F - 28.0 °F 41% 30.34 in 10.0 mi South 3.5 mph - N/A   Scattered Clouds
1:51 PM 55.0 °F - 26.1 °F 33% 30.31 in 10.0 mi Variable 6.9 mph - N/A   Scattered Clouds
2:51 PM 54.0 °F - 24.1 °F 31% 30.29 in 10.0 mi South 9.2 mph - N/A   Clear
3:51 PM 55.9 °F - 23.0 °F 28% 30.27 in 10.0 mi SSE 11.5 mph 16.1 mph N/A   Clear
4:51 PM 57.0 °F - 24.1 °F 28% 30.26 in 10.0 mi SSE 11.5 mph - N/A   Mostly Cloudy
5:51 PM 55.9 °F - 26.1 °F 32% 30.25 in 10.0 mi SSE 10.4 mph - N/A   Partly Cloudy
6:51 PM 55.0 °F - 27.0 °F 34% 30.26 in 10.0 mi SE 4.6 mph - N/A   Mostly Cloudy
7:51 PM 52.0 °F - 28.9 °F 41% 30.27 in 10.0 mi SSE 3.5 mph - N/A   Clear
8:51 PM 50.0 °F - 34.0 °F 54% 30.27 in 9.0 mi SE 8.1 mph - N/A   Clear
9:51 PM 46.0 °F 41.9 °F 34.0 °F 63% 30.27 in 8.0 mi SE 8.1 mph - N/A   Clear
10:51 PM 44.1 °F 39.5 °F 34.0 °F 68% 30.28 in 10.0 mi SSE 8.1 mph - N/A   Clear
11:51 PM 42.1 °F 38.4 °F 33.1 °F 70% 30.29 in 10.0 mi SE 5.8 mph - N/A   Clear
12:51 AM 39.0 °F 34.8 °F 32.0 °F 76% 30.28 in 10.0 mi East 5.8 mph - N/A   Clear